Regional Weather Roundup
Issued by NWS

Home | Current Version | Previous Version | Text Only | Print | Product List | Glossary On
Versions: 1 2 3 4 5 6 7 8 9 10 11 12 13 14 15 16 17 18 19 20 21 22 23 24 25 26 27 28 29 30 31 32 33 34 35 36 37 38 39 40 41 42 43 44 45 46 47 48 49 50
000
ASUS45 KSLC 010510
RWRUT

UTAH REGIONAL WEATHER ROUNDUP
NATIONAL WEATHER SERVICE SALT LAKE CITY UT
1100 PM MDT TUE JUN 30 2015

UTZ001>011-023>025-010600-

NORTHERN UTAH

CITY           SKY/WX    TMP DP  RH WIND       PRES   REMARKS
BRIGHAM CITY   CLOUDY    85  46  25 CALM      30.11R
HILL AFB       LGT RAIN  78  56  47 NE7       30.15
LOGAN          NOT AVBL
OGDEN          NOT AVBL
PROVO AIRPORT  NOT AVBL
SALT LAKE CITY NOT AVBL
VERNAL         NOT AVBL
WENDOVER       NOT AVBL
HEBER CITY     CLOUDY    79  46  31 SW5       30.18R
WEST JORDAN    CLEAR     81  57  44 NW17G30   30.13R

$$

UTZ012>022-026-027-010600-

SOUTHERN/CENTRAL UTAH

CITY           SKY/WX    TMP DP  RH WIND       PRES   REMARKS
BLANDING       CLOUDY    82  43  25 N8        30.19R
CEDAR CITY     NOT AVBL
DELTA          CLOUDY    81  50  33 NE13      30.12R
HANKSVILLE     CLOUDY    88  45  22 N10       30.01R
MILFORD        NOT AVBL
MOAB/CYNLANDS  NOT AVBL
PRICE          NOT AVBL
ST GEORGE      NOT AVBL
KANAB          MOCLDY    79  46  31 NE6       30.13R

$$

REGIONAL REPORTS     COLORADO/ARIZONA

CITY           SKY/WX    TMP DP  RH WIND       PRES   REMARKS
CRAIG, CO      NOT AVBL
GRAND JUNCTION NOT AVBL
RIFLE          NOT AVBL
MONTROSE       NOT AVBL
CORTEZ         NOT AVBL
PAGE, AZ       NOT AVBL
GRAND CANYON   NOT AVBL
KINGMAN        NOT AVBL
FLAGSTAFF      CLOUDY    65  58  78 SW7       30.28R

$$

REGIONAL REPORTS    NEVADA/IDAHO/WYOMING

CITY           SKY/WX    TMP DP  RH WIND       PRES   REMARKS
LAS VEGAS, NV  CLOUDY   106  45  12 SW13      29.74R HX 101
ELY            NOT AVBL
ELKO           CLOUDY    77  53  43 N14       30.18R
POCATELLO, ID  NOT AVBL
EVANSTON, WY   NOT AVBL
ROCK SPRINGS   NOT AVBL
KEMMERER       MOCLDY    68  48  49 N13       30.30S

$$


USA.gov is the U.S. government's official web portal to all federal, state and local government web resources and services.